Back to catalog

ERS 15

AliveSciencePO
NORAD 2412·PAYLOAD·🇺🇸 United States

Launched Aug 19, 1966 from Vandenberg Space Force Base

Loading…

Next Passes (next 24 hours)

TLE

FreshSource: Space-Track

Epoch: Sep 14, 2026, 01:27 UTC

1 02412U 66077C   26257.06076963  .00000002  00000-0  00000-0 0  9996
2 02412  90.3250 278.2758 0006123 340.8365  19.2255  8.59079858398092

Track ERS 15 in real time with AllMySat

Download on the App Store